contact:dominique.lefevre@mio.osupytheas.fr, maurice.libes@osupytheas.fr, didier.mallarino@osupytheas.fr
Project:EMSO http://www.emso-fr.org/EMSO-France
Depth: 2436.0 m
Title:EMSO Ligure Ouest : Data MII capteur MICROCAT
DateTime_Computer,Latitude,Longitude,Temperature,Conductivity,Pressure,DateTime_Instrument
DateTime_Computer,Latitude,Longitude,degC,S m-1,dbar,DateTime_Instrument
2023-03-07T00:01:25Z,42.805,6.029,13.3050,4.60138,2470.6,2023-3-07T02:03:59Z
2023-03-07T00:04:28Z,42.805,6.029,13.3039,4.60141,2470.577,2023-3-07T02:07:03Z
2023-03-07T00:07:31Z,42.805,6.029,13.3051,4.60137,2470.591,2023-3-07T02:10:06Z
2023-03-07T00:10:34Z,42.805,6.029,13.3048,4.60142,2470.577,2023-3-07T02:13:09Z
2023-03-07T00:13:37Z,42.805,6.029,13.3044,4.60135,2470.614,2023-3-07T02:16:12Z
2023-03-07T00:16:40Z,42.805,6.029,13.3039,4.60139,2470.577,2023-3-07T02:19:15Z
2023-03-07T00:19:43Z,42.805,6.029,13.3055,4.60148,2470.577,2023-3-07T02:22:18Z
2023-03-07T00:22:46Z,42.805,6.029,13.3049,4.60140,2470.553,2023-3-07T02:25:21Z
2023-03-07T00:25:49Z,42.805,6.029,13.3044,4.60175,2470.577,2023-3-07T02:28:24Z
2023-03-07T00:28:52Z,42.805,6.029,13.3046,4.60157,2470.577,2023-3-07T02:31:27Z
2023-03-07T00:31:55Z,42.805,6.029,13.3050,4.60144,2470.563,2023-3-07T02:34:30Z
2023-03-07T00:34:58Z,42.805,6.029,13.3042,4.60132,2470.6,2023-3-07T02:37:33Z
2023-03-07T00:38:01Z,42.805,6.029,13.3039,4.60136,2470.553,2023-3-07T02:40:36Z
2023-03-07T00:41:05Z,42.805,6.029,13.3050,4.60136,2470.6,2023-3-07T02:43:39Z
2023-03-07T00:44:08Z,42.805,6.029,13.3039,4.60145,2470.567,2023-3-07T02:46:43Z
2023-03-07T00:47:11Z,42.805,6.029,13.3043,4.60140,2470.577,2023-3-07T02:49:46Z
2023-03-07T00:50:14Z,42.805,6.029,13.3035,4.60130,2470.6,2023-3-07T02:52:49Z
2023-03-07T00:53:17Z,42.805,6.029,13.3041,4.60153,2470.577,2023-3-07T02:55:52Z
2023-03-07T00:56:20Z,42.805,6.029,13.3044,4.60145,2470.53,2023-3-07T02:58:55Z
2023-03-07T00:59:23Z,42.805,6.029,13.3056,4.60150,2470.577,2023-3-07T03:01:58Z
2023-03-07T01:02:26Z,42.805,6.029,13.3050,4.60163,2470.591,2023-3-07T03:05:01Z
2023-03-07T01:05:29Z,42.805,6.029,13.3050,4.60183,2470.577,2023-3-07T03:08:04Z
2023-03-07T01:08:32Z,42.805,6.029,13.3051,4.60162,2470.53,2023-3-07T03:11:07Z
2023-03-07T01:11:35Z,42.805,6.029,13.3051,4.60127,2470.553,2023-3-07T03:14:10Z
2023-03-07T01:14:38Z,42.805,6.029,13.3048,4.60152,2470.6,2023-3-07T03:17:13Z
2023-03-07T01:17:41Z,42.805,6.029,13.3072,4.60123,2470.591,2023-3-07T03:20:16Z
2023-03-07T01:20:45Z,42.805,6.029,13.3062,4.60133,2470.577,2023-3-07T03:23:19Z
2023-03-07T01:23:48Z,42.805,6.029,13.3064,4.60125,2470.577,2023-3-07T03:26:23Z
2023-03-07T01:26:51Z,42.805,6.029,13.3071,4.60129,2470.53,2023-3-07T03:29:26Z
2023-03-07T01:29:54Z,42.805,6.029,13.3052,4.60122,2470.577,2023-3-07T03:32:29Z
2023-03-07T01:32:57Z,42.805,6.029,13.3096,4.60106,2470.567,2023-3-07T03:35:32Z
2023-03-07T01:36:00Z,42.805,6.029,13.3063,4.60152,2470.553,2023-3-07T03:38:35Z
2023-03-07T01:39:03Z,42.805,6.029,13.3034,4.60137,2470.614,2023-3-07T03:41:38Z
2023-03-07T01:42:06Z,42.805,6.029,13.3028,4.60102,2470.577,2023-3-07T03:44:41Z
2023-03-07T01:45:09Z,42.805,6.029,13.3028,4.60094,2470.553,2023-3-07T03:47:44Z
2023-03-07T01:48:12Z,42.805,6.029,13.3031,4.60087,2470.553,2023-3-07T03:50:47Z
2023-03-07T01:51:15Z,42.805,6.029,13.3031,4.60089,2470.567,2023-3-07T03:53:50Z
2023-03-07T01:54:18Z,42.805,6.029,13.3036,4.60087,2470.567,2023-3-07T03:56:53Z
2023-03-07T01:57:21Z,42.805,6.029,13.3028,4.60092,2470.567,2023-3-07T03:59:56Z
2023-03-07T02:00:25Z,42.805,6.029,13.3035,4.60091,2470.544,2023-3-07T04:02:59Z
2023-03-07T02:03:28Z,42.805,6.029,13.3032,4.60089,2470.553,2023-3-07T04:06:03Z
2023-03-07T02:06:31Z,42.805,6.029,13.3029,4.60087,2470.567,2023-3-07T04:09:06Z
2023-03-07T02:09:34Z,42.805,6.029,13.3026,4.60086,2470.567,2023-3-07T04:12:09Z
2023-03-07T02:12:37Z,42.805,6.029,13.3030,4.60091,2470.567,2023-3-07T04:15:12Z
2023-03-07T02:15:40Z,42.805,6.029,13.3027,4.60089,2470.6,2023-3-07T04:18:15Z
2023-03-07T02:18:43Z,42.805,6.029,13.3025,4.60087,2470.604,2023-3-07T04:21:18Z
2023-03-07T02:21:46Z,42.805,6.029,13.3024,4.60087,2470.577,2023-3-07T04:24:21Z
2023-03-07T02:24:49Z,42.805,6.029,13.3023,4.60087,2470.53,2023-3-07T04:27:24Z
2023-03-07T02:27:52Z,42.805,6.029,13.3025,4.60089,2470.586,2023-3-07T04:30:27Z
2023-03-07T02:30:55Z,42.805,6.029,13.3024,4.60084,2470.567,2023-3-07T04:33:30Z
2023-03-07T02:33:58Z,42.805,6.029,13.3026,4.60085,2470.6,2023-3-07T04:36:33Z
2023-03-07T02:37:01Z,42.805,6.029,13.3024,4.60085,2470.577,2023-3-07T04:39:36Z
2023-03-07T02:40:04Z,42.805,6.029,13.3025,4.60084,2470.6,2023-3-07T04:42:39Z
2023-03-07T02:43:08Z,42.805,6.029,13.3024,4.60092,2470.553,2023-3-07T04:45:42Z
2023-03-07T02:46:11Z,42.805,6.029,13.3026,4.60086,2470.577,2023-3-07T04:48:46Z
2023-03-07T02:49:14Z,42.805,6.029,13.3021,4.60084,2470.6,2023-3-07T04:51:49Z
2023-03-07T02:52:17Z,42.805,6.029,13.3028,4.60087,2470.577,2023-3-07T04:54:52Z
2023-03-07T02:55:20Z,42.805,6.029,13.3026,4.60084,2470.577,2023-3-07T04:57:55Z
2023-03-07T02:58:23Z,42.805,6.029,13.3022,4.60085,2470.577,2023-3-07T05:00:58Z
2023-03-07T03:01:26Z,42.805,6.029,13.3029,4.60085,2470.614,2023-3-07T05:04:01Z
2023-03-07T03:04:29Z,42.805,6.029,13.3026,4.60084,2470.591,2023-3-07T05:07:04Z
2023-03-07T03:07:32Z,42.805,6.029,13.3026,4.60085,2470.577,2023-3-07T05:10:07Z
2023-03-07T03:10:35Z,42.805,6.029,13.3023,4.60085,2470.614,2023-3-07T05:13:10Z
2023-03-07T03:13:38Z,42.805,6.029,13.3028,4.60084,2470.624,2023-3-07T05:16:13Z
2023-03-07T03:16:41Z,42.805,6.029,13.3026,4.60086,2470.6,2023-3-07T05:19:16Z
2023-03-07T03:19:44Z,42.805,6.029,13.3028,4.60085,2470.614,2023-3-07T05:22:19Z
2023-03-07T03:22:47Z,42.805,6.029,13.3026,4.60085,2470.577,2023-3-07T05:25:22Z
2023-03-07T03:25:51Z,42.805,6.029,13.3024,4.60084,2470.637,2023-3-07T05:28:26Z
2023-03-07T03:28:54Z,42.805,6.029,13.3025,4.60081,2470.637,2023-3-07T05:31:29Z
2023-03-07T03:31:57Z,42.805,6.029,13.3028,4.60081,2470.6,2023-3-07T05:34:32Z
2023-03-07T03:35:00Z,42.805,6.029,13.3024,4.60081,2470.614,2023-3-07T05:37:35Z
2023-03-07T03:38:03Z,42.805,6.029,13.3026,4.60086,2470.651,2023-3-07T05:40:38Z
2023-03-07T03:41:06Z,42.805,6.029,13.3021,4.60082,2470.614,2023-3-07T05:43:41Z
2023-03-07T03:44:09Z,42.805,6.029,13.3026,4.60080,2470.586,2023-3-07T05:46:44Z
2023-03-07T03:47:12Z,42.805,6.029,13.3026,4.60081,2470.637,2023-3-07T05:49:47Z
2023-03-07T03:50:15Z,42.805,6.029,13.3024,4.60081,2470.624,2023-3-07T05:52:50Z
2023-03-07T03:53:18Z,42.805,6.029,13.3029,4.60081,2470.624,2023-3-07T05:55:53Z
2023-03-07T03:56:21Z,42.805,6.029,13.3026,4.60080,2470.646,2023-3-07T05:58:56Z
2023-03-07T03:59:24Z,42.805,6.029,13.3026,4.60080,2470.661,2023-3-07T06:01:59Z
2023-03-07T04:02:27Z,42.805,6.029,13.3026,4.60080,2470.67,2023-3-07T06:05:02Z
2023-03-07T04:05:31Z,42.805,6.029,13.3023,4.60079,2470.637,2023-3-07T06:08:05Z
2023-03-07T04:08:34Z,42.805,6.029,13.3027,4.60080,2470.646,2023-3-07T06:11:09Z
2023-03-07T04:11:37Z,42.805,6.029,13.3024,4.60081,2470.661,2023-3-07T06:14:12Z
2023-03-07T04:14:40Z,42.805,6.029,13.3021,4.60081,2470.693,2023-3-07T06:17:15Z
2023-03-07T04:17:43Z,42.805,6.029,13.3026,4.60080,2470.684,2023-3-07T06:20:18Z
2023-03-07T04:20:46Z,42.805,6.029,13.3021,4.60081,2470.646,2023-3-07T06:23:21Z
2023-03-07T04:23:49Z,42.805,6.029,13.3026,4.60080,2470.67,2023-3-07T06:26:24Z
2023-03-07T04:26:52Z,42.805,6.029,13.3025,4.60082,2470.646,2023-3-07T06:29:27Z
2023-03-07T04:29:55Z,42.805,6.029,13.3024,4.60082,2470.646,2023-3-07T06:32:30Z
2023-03-07T04:32:58Z,42.805,6.029,13.3024,4.60081,2470.684,2023-3-07T06:35:33Z
2023-03-07T04:36:01Z,42.805,6.029,13.3024,4.60089,2470.707,2023-3-07T06:38:36Z
2023-03-07T04:39:04Z,42.805,6.029,13.3024,4.60081,2470.707,2023-3-07T06:41:39Z
2023-03-07T04:42:07Z,42.805,6.029,13.3026,4.60082,2470.67,2023-3-07T06:44:42Z
2023-03-07T04:45:11Z,42.805,6.029,13.3023,4.60081,2470.73,2023-3-07T06:47:46Z
2023-03-07T04:48:14Z,42.805,6.029,13.3027,4.60081,2470.693,2023-3-07T06:50:49Z
2023-03-07T04:51:17Z,42.805,6.029,13.3024,4.60081,2470.67,2023-3-07T06:53:52Z
2023-03-07T04:54:20Z,42.805,6.029,13.3026,4.60084,2470.754,2023-3-07T06:56:55Z
2023-03-07T04:57:23Z,42.805,6.029,13.3026,4.60080,2470.717,2023-3-07T06:59:58Z
2023-03-07T05:00:26Z,42.805,6.029,13.3024,4.60084,2470.717,2023-3-07T07:03:01Z
2023-03-07T05:03:29Z,42.805,6.029,13.3026,4.60080,2470.717,2023-3-07T07:06:04Z
2023-03-07T05:06:32Z,42.805,6.029,13.3026,4.60081,2470.717,2023-3-07T07:09:07Z
2023-03-07T05:09:35Z,42.805,6.029,13.3025,4.60081,2470.763,2023-3-07T07:12:10Z
2023-03-07T05:12:38Z,42.805,6.029,13.3029,4.60082,2470.73,2023-3-07T07:15:13Z
2023-03-07T05:15:41Z,42.805,6.029,13.3023,4.60080,2470.73,2023-3-07T07:18:16Z
2023-03-07T05:18:44Z,42.805,6.029,13.3024,4.60081,2470.763,2023-3-07T07:21:19Z
2023-03-07T05:21:47Z,42.805,6.029,13.3021,4.60080,2470.754,2023-3-07T07:24:22Z
2023-03-07T05:24:50Z,42.805,6.029,13.3022,4.60079,2470.74,2023-3-07T07:27:25Z
2023-03-07T05:27:54Z,42.805,6.029,13.3023,4.60080,2470.74,2023-3-07T07:30:29Z
2023-03-07T05:30:57Z,42.805,6.029,13.3024,4.60082,2470.74,2023-3-07T07:33:32Z
2023-03-07T05:34:00Z,42.805,6.029,13.3024,4.60079,2470.763,2023-3-07T07:36:35Z
2023-03-07T05:37:03Z,42.805,6.029,13.3021,4.60079,2470.763,2023-3-07T07:39:38Z
2023-03-07T05:40:06Z,42.805,6.029,13.3021,4.60079,2470.787,2023-3-07T07:42:41Z
2023-03-07T05:43:09Z,42.805,6.029,13.3022,4.60079,2470.763,2023-3-07T07:45:44Z
2023-03-07T05:46:12Z,42.805,6.029,13.3019,4.60079,2470.763,2023-3-07T07:48:47Z
2023-03-07T05:49:15Z,42.805,6.029,13.3022,4.60079,2470.763,2023-3-07T07:51:50Z
2023-03-07T05:52:18Z,42.805,6.029,13.3023,4.60083,2470.754,2023-3-07T07:54:53Z
2023-03-07T05:55:21Z,42.805,6.029,13.3024,4.60080,2470.763,2023-3-07T07:57:56Z
2023-03-07T05:58:24Z,42.805,6.029,13.3020,4.60081,2470.763,2023-3-07T08:00:59Z
2023-03-07T06:01:27Z,42.805,6.029,13.3021,4.60079,2470.763,2023-3-07T08:04:02Z
2023-03-07T06:04:30Z,42.805,6.029,13.3023,4.60079,2470.787,2023-3-07T08:07:05Z
2023-03-07T06:07:33Z,42.805,6.029,13.3022,4.60080,2470.787,2023-3-07T08:10:08Z
2023-03-07T06:10:37Z,42.805,6.029,13.3024,4.60080,2470.754,2023-3-07T08:13:12Z
2023-03-07T06:13:40Z,42.805,6.029,13.3020,4.60079,2470.763,2023-3-07T08:16:15Z
2023-03-07T06:16:43Z,42.805,6.029,13.3024,4.60081,2470.787,2023-3-07T08:19:18Z
2023-03-07T06:19:46Z,42.805,6.029,13.3021,4.60080,2470.787,2023-3-07T08:22:21Z
2023-03-07T06:22:49Z,42.805,6.029,13.3021,4.60080,2470.8,2023-3-07T08:25:24Z
2023-03-07T06:25:52Z,42.805,6.029,13.3023,4.60081,2470.787,2023-3-07T08:28:27Z
2023-03-07T06:28:55Z,42.805,6.029,13.3021,4.60081,2470.81,2023-3-07T08:31:30Z
2023-03-07T06:31:58Z,42.805,6.029,13.3021,4.60083,2470.763,2023-3-07T08:34:33Z
2023-03-07T06:35:01Z,42.805,6.029,13.3022,4.60081,2470.787,2023-3-07T08:37:36Z
2023-03-07T06:38:04Z,42.805,6.029,13.3024,4.60084,2470.824,2023-3-07T08:40:39Z
2023-03-07T06:41:07Z,42.805,6.029,13.3021,4.60082,2470.777,2023-3-07T08:43:42Z
2023-03-07T06:44:10Z,42.805,6.029,13.3024,4.60081,2470.824,2023-3-07T08:46:45Z
2023-03-07T06:47:13Z,42.805,6.029,13.3019,4.60081,2470.787,2023-3-07T08:49:48Z
2023-03-07T06:50:17Z,42.805,6.029,13.3024,4.60081,2470.81,2023-3-07T08:52:52Z
2023-03-07T06:53:20Z,42.805,6.029,13.3026,4.60081,2470.847,2023-3-07T08:55:55Z
2023-03-07T06:56:23Z,42.805,6.029,13.3022,4.60084,2470.8,2023-3-07T08:58:58Z
2023-03-07T06:59:26Z,42.805,6.029,13.3024,4.60081,2470.787,2023-3-07T09:02:01Z
2023-03-07T07:02:29Z,42.805,6.029,13.3026,4.60079,2470.81,2023-3-07T09:05:04Z
2023-03-07T07:05:32Z,42.805,6.029,13.3021,4.60084,2470.81,2023-3-07T09:08:07Z
2023-03-07T07:08:35Z,42.805,6.029,13.3017,4.60081,2470.8,2023-3-07T09:11:10Z
2023-03-07T07:11:38Z,42.805,6.029,13.3025,4.60086,2470.833,2023-3-07T09:14:13Z
2023-03-07T07:14:41Z,42.805,6.029,13.3024,4.60080,2470.833,2023-3-07T09:17:16Z
2023-03-07T07:17:44Z,42.805,6.029,13.3024,4.60080,2470.824,2023-3-07T09:20:19Z
2023-03-07T07:20:47Z,42.805,6.029,13.3023,4.60080,2470.81,2023-3-07T09:23:22Z
2023-03-07T07:23:50Z,42.805,6.029,13.3022,4.60079,2470.847,2023-3-07T09:26:25Z
2023-03-07T07:26:53Z,42.805,6.029,13.3023,4.60079,2470.81,2023-3-07T09:29:28Z
2023-03-07T07:29:56Z,42.805,6.029,13.3018,4.60079,2470.787,2023-3-07T09:32:32Z
2023-03-07T07:33:00Z,42.805,6.029,13.3023,4.60080,2470.777,2023-3-07T09:35:35Z
2023-03-07T07:36:03Z,42.805,6.029,13.3024,4.60080,2470.787,2023-3-07T09:38:38Z
2023-03-07T07:39:06Z,42.805,6.029,13.3024,4.60086,2470.824,2023-3-07T09:41:41Z
2023-03-07T07:42:09Z,42.805,6.029,13.3024,4.60080,2470.824,2023-3-07T09:44:44Z
2023-03-07T07:45:12Z,42.805,6.029,13.3025,4.60080,2470.81,2023-3-07T09:47:47Z
2023-03-07T07:48:15Z,42.805,6.029,13.3020,4.60080,2470.81,2023-3-07T09:50:50Z
2023-03-07T07:51:18Z,42.805,6.029,13.3021,4.60085,2470.81,2023-3-07T09:53:53Z
2023-03-07T07:54:21Z,42.805,6.029,13.3020,4.60079,2470.81,2023-3-07T09:56:56Z
2023-03-07T07:57:24Z,42.805,6.029,13.3026,4.60081,2470.833,2023-3-07T09:59:59Z
2023-03-07T08:00:27Z,42.805,6.029,13.3021,4.60080,2470.81,2023-3-07T10:03:02Z
2023-03-07T08:03:30Z,42.805,6.029,13.3027,4.60079,2470.824,2023-3-07T10:06:05Z
2023-03-07T08:06:33Z,42.805,6.029,13.3025,4.60082,2470.824,2023-3-07T10:09:08Z
2023-03-07T08:09:36Z,42.805,6.029,13.3023,4.60082,2470.833,2023-3-07T10:12:12Z
2023-03-07T08:12:40Z,42.805,6.029,13.3023,4.60079,2470.773,2023-3-07T10:15:15Z
2023-03-07T08:15:43Z,42.805,6.029,13.3021,4.60079,2470.81,2023-3-07T10:18:18Z
2023-03-07T08:18:46Z,42.805,6.029,13.3028,4.60080,2470.8,2023-3-07T10:21:21Z
2023-03-07T08:21:49Z,42.805,6.029,13.3024,4.60081,2470.787,2023-3-07T10:24:24Z
2023-03-07T08:24:52Z,42.805,6.029,13.3019,4.60080,2470.81,2023-3-07T10:27:27Z
2023-03-07T08:27:55Z,42.805,6.029,13.3024,4.60079,2470.81,2023-3-07T10:30:30Z
2023-03-07T08:30:58Z,42.805,6.029,13.3021,4.60079,2470.81,2023-3-07T10:33:33Z
2023-03-07T08:34:01Z,42.805,6.029,13.3024,4.60080,2470.824,2023-3-07T10:36:36Z
2023-03-07T08:37:04Z,42.805,6.029,13.3024,4.60084,2470.824,2023-3-07T10:39:39Z
2023-03-07T08:40:07Z,42.805,6.029,13.3021,4.60085,2470.8,2023-3-07T10:42:42Z
2023-03-07T08:43:10Z,42.805,6.029,13.3022,4.60081,2470.833,2023-3-07T10:45:45Z
2023-03-07T08:46:13Z,42.805,6.029,13.3020,4.60081,2470.787,2023-3-07T10:48:49Z
2023-03-07T08:49:17Z,42.805,6.029,13.3022,4.60082,2470.81,2023-3-07T10:51:52Z
2023-03-07T08:52:20Z,42.805,6.029,13.3021,4.60084,2470.81,2023-3-07T10:54:55Z
2023-03-07T08:55:23Z,42.805,6.029,13.3025,4.60081,2470.81,2023-3-07T10:57:58Z
2023-03-07T08:58:26Z,42.805,6.029,13.3022,4.60086,2470.833,2023-3-07T11:01:01Z
2023-03-07T09:01:29Z,42.805,6.029,13.3020,4.60086,2470.8,2023-3-07T11:04:04Z
2023-03-07T09:04:32Z,42.805,6.029,13.3023,4.60081,2470.81,2023-3-07T11:07:07Z
2023-03-07T09:07:35Z,42.805,6.029,13.3020,4.60080,2470.763,2023-3-07T11:10:10Z
2023-03-07T09:10:38Z,42.805,6.029,13.3020,4.60080,2470.824,2023-3-07T11:13:13Z
2023-03-07T09:13:41Z,42.805,6.029,13.3020,4.60081,2470.824,2023-3-07T11:16:16Z
2023-03-07T09:16:44Z,42.805,6.029,13.3021,4.60081,2470.787,2023-3-07T11:19:19Z
2023-03-07T09:19:47Z,42.805,6.029,13.3025,4.60081,2470.787,2023-3-07T11:22:22Z
2023-03-07T09:22:50Z,42.805,6.029,13.3021,4.60081,2470.787,2023-3-07T11:25:25Z
2023-03-07T09:25:53Z,42.805,6.029,13.3023,4.60081,2470.81,2023-3-07T11:28:29Z
2023-03-07T09:28:57Z,42.805,6.029,13.3021,4.60087,2470.787,2023-3-07T11:31:32Z
2023-03-07T09:32:00Z,42.805,6.029,13.3025,4.60086,2470.763,2023-3-07T11:34:35Z
2023-03-07T09:35:03Z,42.805,6.029,13.3024,4.60081,2470.763,2023-3-07T11:37:38Z
2023-03-07T09:38:06Z,42.805,6.029,13.3024,4.60084,2470.787,2023-3-07T11:40:41Z
2023-03-07T09:41:09Z,42.805,6.029,13.3024,4.60081,2470.787,2023-3-07T11:43:44Z
2023-03-07T09:44:12Z,42.805,6.029,13.3023,4.60080,2470.8,2023-3-07T11:46:47Z
2023-03-07T09:47:15Z,42.805,6.029,13.3022,4.60087,2470.8,2023-3-07T11:49:50Z
2023-03-07T09:50:18Z,42.805,6.029,13.3023,4.60084,2470.8,2023-3-07T11:52:53Z
2023-03-07T09:53:21Z,42.805,6.029,13.3022,4.60080,2470.763,2023-3-07T11:55:56Z
2023-03-07T09:56:24Z,42.805,6.029,13.3024,4.60079,2470.763,2023-3-07T11:58:59Z
2023-03-07T09:59:27Z,42.805,6.029,13.3021,4.60081,2470.787,2023-3-07T12:02:02Z
2023-03-07T10:02:30Z,42.805,6.029,13.3017,4.60085,2470.74,2023-3-07T12:05:06Z
2023-03-07T10:05:33Z,42.805,6.029,13.3022,4.60082,2470.777,2023-3-07T12:08:09Z
2023-03-07T10:08:37Z,42.805,6.029,13.3022,4.60081,2470.787,2023-3-07T12:11:12Z
2023-03-07T10:11:40Z,42.805,6.029,13.3025,4.60080,2470.74,2023-3-07T12:14:15Z
2023-03-07T10:14:43Z,42.805,6.029,13.3025,4.60083,2470.763,2023-3-07T12:17:18Z
2023-03-07T10:17:46Z,42.805,6.029,13.3021,4.60084,2470.777,2023-3-07T12:20:21Z
2023-03-07T10:20:49Z,42.805,6.029,13.3026,4.60080,2470.74,2023-3-07T12:23:24Z
2023-03-07T10:23:52Z,42.805,6.029,13.3019,4.60080,2470.74,2023-3-07T12:26:27Z
2023-03-07T10:26:55Z,42.805,6.029,13.3022,4.60082,2470.763,2023-3-07T12:29:30Z
2023-03-07T10:29:58Z,42.805,6.029,13.3024,4.60080,2470.74,2023-3-07T12:32:33Z
2023-03-07T10:33:01Z,42.805,6.029,13.3024,4.60088,2470.74,2023-3-07T12:35:36Z
2023-03-07T10:36:04Z,42.805,6.029,13.3021,4.60083,2470.717,2023-3-07T12:38:39Z
2023-03-07T10:39:07Z,42.805,6.029,13.3024,4.60084,2470.754,2023-3-07T12:41:42Z
2023-03-07T10:42:10Z,42.805,6.029,13.3021,4.60079,2470.754,2023-3-07T12:44:46Z
2023-03-07T10:45:13Z,42.805,6.029,13.3022,4.60079,2470.754,2023-3-07T12:47:49Z
2023-03-07T10:48:17Z,42.805,6.029,13.3022,4.60079,2470.717,2023-3-07T12:50:52Z
2023-03-07T10:51:20Z,42.805,6.029,13.3021,4.60079,2470.717,2023-3-07T12:53:55Z
2023-03-07T10:54:23Z,42.805,6.029,13.3022,4.60082,2470.717,2023-3-07T12:56:58Z
2023-03-07T10:57:26Z,42.805,6.029,13.3020,4.60080,2470.693,2023-3-07T13:00:01Z
2023-03-07T11:00:29Z,42.805,6.029,13.3021,4.60087,2470.717,2023-3-07T13:03:04Z
2023-03-07T11:03:32Z,42.805,6.029,13.3020,4.60079,2470.74,2023-3-07T13:06:07Z
2023-03-07T11:06:35Z,42.805,6.029,13.3020,4.60080,2470.754,2023-3-07T13:09:10Z
2023-03-07T11:09:38Z,42.805,6.029,13.3023,4.60079,2470.693,2023-3-07T13:12:13Z
2023-03-07T11:12:41Z,42.805,6.029,13.3024,4.60079,2470.693,2023-3-07T13:15:16Z
2023-03-07T11:15:44Z,42.805,6.029,13.3024,4.60080,2470.717,2023-3-07T13:18:19Z
2023-03-07T11:18:47Z,42.805,6.029,13.3020,4.60080,2470.74,2023-3-07T13:21:23Z
2023-03-07T11:21:50Z,42.805,6.029,13.3021,4.60079,2470.707,2023-3-07T13:24:26Z
2023-03-07T11:24:53Z,42.805,6.029,13.3024,4.60079,2470.693,2023-3-07T13:27:29Z
2023-03-07T11:27:57Z,42.805,6.029,13.3020,4.60080,2470.661,2023-3-07T13:30:32Z
2023-03-07T11:31:00Z,42.805,6.029,13.3024,4.60079,2470.707,2023-3-07T13:33:35Z
2023-03-07T11:34:03Z,42.805,6.029,13.3026,4.60079,2470.707,2023-3-07T13:36:38Z
2023-03-07T11:37:06Z,42.805,6.029,13.3024,4.60080,2470.707,2023-3-07T13:39:41Z
2023-03-07T11:40:09Z,42.805,6.029,13.3020,4.60079,2470.67,2023-3-07T13:42:44Z
2023-03-07T11:43:12Z,42.805,6.029,13.3024,4.60079,2470.693,2023-3-07T13:45:47Z
2023-03-07T11:46:15Z,42.805,6.029,13.3021,4.60079,2470.693,2023-3-07T13:48:50Z
2023-03-07T11:49:18Z,42.805,6.029,13.3021,4.60079,2470.693,2023-3-07T13:51:53Z
2023-03-07T11:52:21Z,42.805,6.029,13.3021,4.60079,2470.707,2023-3-07T13:54:56Z
2023-03-07T11:55:24Z,42.805,6.029,13.3021,4.60079,2470.693,2023-3-07T13:57:59Z
2023-03-07T11:58:27Z,42.805,6.029,13.3020,4.60079,2470.693,2023-3-07T14:01:03Z
2023-03-07T12:01:30Z,42.805,6.029,13.3021,4.60079,2470.717,2023-3-07T14:04:06Z
2023-03-07T12:04:34Z,42.805,6.029,13.3024,4.60080,2470.717,2023-3-07T14:07:09Z
2023-03-07T12:07:37Z,42.805,6.029,13.3020,4.60079,2470.67,2023-3-07T14:10:12Z
2023-03-07T12:10:40Z,42.805,6.029,13.3021,4.60079,2470.637,2023-3-07T14:13:15Z
2023-03-07T12:13:43Z,42.805,6.029,13.3023,4.60078,2470.693,2023-3-07T14:16:18Z
2023-03-07T12:16:46Z,42.805,6.029,13.3020,4.60079,2470.707,2023-3-07T14:19:21Z
2023-03-07T12:19:49Z,42.805,6.029,13.3019,4.60079,2470.684,2023-3-07T14:22:24Z
2023-03-07T12:22:52Z,42.805,6.029,13.3024,4.60084,2470.67,2023-3-07T14:25:27Z
2023-03-07T12:25:55Z,42.805,6.029,13.3020,4.60082,2470.646,2023-3-07T14:28:30Z
2023-03-07T12:28:58Z,42.805,6.029,13.3022,4.60080,2470.646,2023-3-07T14:31:33Z
2023-03-07T12:32:01Z,42.805,6.029,13.3024,4.60078,2470.646,2023-3-07T14:34:36Z
2023-03-07T12:35:04Z,42.805,6.029,13.3024,4.60077,2470.661,2023-3-07T14:37:40Z
2023-03-07T12:38:07Z,42.805,6.029,13.3023,4.60077,2470.661,2023-3-07T14:40:43Z
2023-03-07T12:41:11Z,42.805,6.029,13.3024,4.60077,2470.661,2023-3-07T14:43:46Z
2023-03-07T12:44:14Z,42.805,6.029,13.3019,4.60078,2470.661,2023-3-07T14:46:49Z
2023-03-07T12:47:17Z,42.805,6.029,13.3020,4.60076,2470.637,2023-3-07T14:49:52Z
2023-03-07T12:50:20Z,42.805,6.029,13.3021,4.60077,2470.6,2023-3-07T14:52:55Z
2023-03-07T12:53:23Z,42.805,6.029,13.3024,4.60080,2470.624,2023-3-07T14:55:58Z
2023-03-07T12:56:26Z,42.805,6.029,13.3019,4.60076,2470.661,2023-3-07T14:59:01Z
2023-03-07T12:59:29Z,42.805,6.029,13.3017,4.60076,2470.646,2023-3-07T15:02:04Z
2023-03-07T13:02:32Z,42.805,6.029,13.3021,4.60076,2470.661,2023-3-07T15:05:07Z
2023-03-07T13:05:35Z,42.805,6.029,13.3018,4.60077,2470.637,2023-3-07T15:08:10Z
2023-03-07T13:08:38Z,42.805,6.029,13.3020,4.60074,2470.646,2023-3-07T15:11:13Z
2023-03-07T13:11:41Z,42.805,6.029,13.3019,4.60074,2470.624,2023-3-07T15:14:17Z
2023-03-07T13:14:44Z,42.805,6.029,13.3020,4.60074,2470.614,2023-3-07T15:17:20Z
2023-03-07T13:17:47Z,42.805,6.029,13.3019,4.60075,2470.624,2023-3-07T15:20:23Z
2023-03-07T13:20:51Z,42.805,6.029,13.3023,4.60077,2470.6,2023-3-07T15:23:26Z
2023-03-07T13:23:54Z,42.805,6.029,13.3021,4.60077,2470.6,2023-3-07T15:26:29Z
2023-03-07T13:26:57Z,42.805,6.029,13.3019,4.60075,2470.637,2023-3-07T15:29:32Z
2023-03-07T13:30:00Z,42.805,6.029,13.3019,4.60075,2470.646,2023-3-07T15:32:35Z
2023-03-07T13:33:03Z,42.805,6.029,13.3022,4.60074,2470.6,2023-3-07T15:35:38Z
2023-03-07T13:36:06Z,42.805,6.029,13.3019,4.60075,2470.637,2023-3-07T15:38:41Z
2023-03-07T13:39:09Z,42.805,6.029,13.3021,4.60075,2470.661,2023-3-07T15:41:44Z
2023-03-07T13:42:12Z,42.805,6.029,13.3019,4.60074,2470.614,2023-3-07T15:44:47Z
2023-03-07T13:45:15Z,42.805,6.029,13.3020,4.60075,2470.6,2023-3-07T15:47:50Z
2023-03-07T13:48:18Z,42.805,6.029,13.3021,4.60074,2470.633,2023-3-07T15:50:53Z
2023-03-07T13:51:21Z,42.805,6.029,13.3019,4.60074,2470.624,2023-3-07T15:53:57Z
2023-03-07T13:54:24Z,42.805,6.029,13.3015,4.60075,2470.6,2023-3-07T15:57:00Z
2023-03-07T13:57:27Z,42.805,6.029,13.3020,4.60074,2470.6,2023-3-07T16:00:03Z
2023-03-07T14:00:31Z,42.805,6.029,13.3020,4.60075,2470.6,2023-3-07T16:03:06Z
2023-03-07T14:03:34Z,42.805,6.029,13.3018,4.60075,2470.6,2023-3-07T16:06:09Z
2023-03-07T14:06:37Z,42.805,6.029,13.3019,4.60074,2470.614,2023-3-07T16:09:12Z
2023-03-07T14:09:40Z,42.805,6.029,13.3017,4.60074,2470.586,2023-3-07T16:12:15Z
2023-03-07T14:12:43Z,42.805,6.029,13.3016,4.60082,2470.624,2023-3-07T16:15:18Z
2023-03-07T14:15:46Z,42.805,6.029,13.3022,4.60076,2470.577,2023-3-07T16:18:21Z
2023-03-07T14:18:49Z,42.805,6.029,13.3020,4.60076,2470.624,2023-3-07T16:21:24Z
2023-03-07T14:21:52Z,42.805,6.029,13.3023,4.60085,2470.6,2023-3-07T16:24:27Z
2023-03-07T14:24:55Z,42.805,6.029,13.3021,4.60074,2470.577,2023-3-07T16:27:30Z
2023-03-07T14:27:58Z,42.805,6.029,13.3017,4.60075,2470.637,2023-3-07T16:30:34Z
2023-03-07T14:31:01Z,42.805,6.029,13.3015,4.60076,2470.6,2023-3-07T16:33:37Z
2023-03-07T14:34:04Z,42.805,6.029,13.3018,4.60075,2470.624,2023-3-07T16:36:40Z
2023-03-07T14:37:08Z,42.805,6.029,13.3020,4.60076,2470.6,2023-3-07T16:39:43Z
2023-03-07T14:40:11Z,42.805,6.029,13.3018,4.60076,2470.624,2023-3-07T16:42:46Z
2023-03-07T14:43:14Z,42.805,6.029,13.3022,4.60076,2470.624,2023-3-07T16:45:49Z
2023-03-07T14:46:17Z,42.805,6.029,13.3020,4.60076,2470.591,2023-3-07T16:48:52Z
2023-03-07T14:49:20Z,42.805,6.029,13.3021,4.60076,2470.6,2023-3-07T16:51:55Z
2023-03-07T14:52:23Z,42.805,6.029,13.3019,4.60076,2470.577,2023-3-07T16:54:58Z
2023-03-07T14:55:26Z,42.805,6.029,13.3020,4.60076,2470.614,2023-3-07T16:58:01Z
2023-03-07T14:58:29Z,42.805,6.029,13.3025,4.60076,2470.61,2023-3-07T17:01:04Z
2023-03-07T15:01:32Z,42.805,6.029,13.3019,4.60077,2470.646,2023-3-07T17:04:07Z
2023-03-07T15:04:35Z,42.805,6.029,13.3024,4.60077,2470.661,2023-3-07T17:07:10Z
2023-03-07T15:07:38Z,42.805,6.029,13.3021,4.60078,2470.577,2023-3-07T17:10:14Z
2023-03-07T15:10:41Z,42.805,6.029,13.3018,4.60084,2470.614,2023-3-07T17:13:17Z
2023-03-07T15:13:44Z,42.805,6.029,13.3021,4.60077,2470.614,2023-3-07T17:16:20Z